Vorticity
4 8 6 2 -2 1 -1 -4 4 -0 8 6 5 4 2 3 1 2 2 2 1 3 5 7 4 0 2 3 0 1 1 1 2 1 2 3 3 10 10 5 7 4 7 8 9 6 5 4 4
6 7 8 -0 -1 -2 1 -7 5 3 -1 2 2 4 -1 -1 3 1 1 1 4 4 4 4 2 2 5 5 3 4 5 5 3 3 5 6 7 9 9 8 8 7 6 9 11 7 6 6 4
6 8 8 -8 4 2 7 4 -1 -0 -4 4 3 5 3 3 3 4 2 4 4 4 4 3 3 1 4 1 3 4 5 5 5 4 6 7 7 7 8 10 8 7 7 7 8 10 5 5 5
4 8 9 1 -1 -3 -11 -11 2 0 11 1 1 10 5 8 6 4 4 4 4 4 3 4 5 2 3 2 4 3 4 5 6 6 7 6 6 4 5 7 8 6 7 10 4 8 8 5 4
5 8 7 5 -1 3 -1 1 -1 3 8 7 3 6 5 8 6 7 5 3 5 4 4 5 3 2 4 3 2 3 3 4 7 7 7 9 5 5 4 5 8 14 7 7 14 5 9 7 4
4 7 9 -0 1 3 6 5 -1 0 6 4 4 5 6 6 7 4 2 4 3 4 5 5 2 2 3 3 2 1 4 6 8 8 7 7 7 6 4 5 7 5 7 10 11 13 5 2 7
3 6 6 12 3 3 4 -4 -3 4 2 1 2 5 5 5 5 5 4 3 4 4 4 4 3 2 3 3 0 3 7 7 8 7 7 6 7 9 7 6 5 3 4 0 8 16 14 -8 20
2 8 7 -2 -4 -1 3 -5 13 5 5 1 -1 3 5 6 5 5 4 5 6 5 4 4 5 3 2 3 -1 3 9 9 7 7 5 7 10 11 6 8 12 5 11 10 3 9 16 6 5
4 6 6 3 -3 2 -2 2 4 11 7 10 9 7 7 7 5 4 4 5 5 4 4 3 4 4 3 3 1 -1 12 8 7 5 6 10 7 10 7 11 10 7 44 25 27 35 34 37 48
5 7 4 4 -3 -5 1 4 4 9 4 6 6 5 6 6 5 3 3 4 3 3 3 4 6 2 4 2 3 4 11 6 6 8 12 5 11 11 8 -3 11 19 -20 15 2 1 6 35 45
5 6 3 0 3 3 -2 -1 1 5 9 1 4 6 7 4 3 3 4 5 4 3 3 6 3 3 2 4 7 11 7 8 6 9 9 10 11 7 -9 12 -0 8 14 -0 2 -3 -3 -5 89
3 5 3 2 1 7 6 3 0 4 6 5 5 6 4 4 4 3 4 4 4 4 10 3 6 3 4 21 17 8 5 8 9 8 5 3 15 4 14 3 13 3 3 5 6 3 0 8 3
4 5 1 -0 6 8 5 4 3 6 4 5 4 4 3 5 5 6 4 3 5 6 2 7 1 14 17 17 6 5 11 9 6 7 4 8 11 2 5 2 -0 3 11 1 4 1 2 -1 -1
5 7 5 4 8 10 6 2 3 7 3 3 4 5 4 5 4 4 7 7 6 -1 10 21 16 12 13 4 5 9 9 6 6 2 9 11 7 8 5 2 3 4 3 -0 -5 8 -5 1 2
7 8 8 7 7 6 6 5 7 2 4 4 4 4 5 5 4 12 0 2 6 3 16 21 7 6 5 7 9 9 9 7 2 7 8 6 6 1 9 4 0 0 -4 -6 7 2 4 16 6
4 5 6 10 8 8 3 7 2 5 5 4 5 5 4 5 9 10 -3 10 24 13 8 10 7 5 10 11 7 10 7 9 2 8 6 6 3 7 2 2 3 5 -3 -8 4 6 10 11 15
7 7 7 9 7 5 4 7 6 6 5 4 5 3 7 1 -1 -0 -1 15 13 13 8 9 5 6 10 8 10 7 7 5 7 4 6 5 5 6 -0 -0 -0 0 1 1 4 13 10 10 13
6 6 7 8 6 5 5 4 3 3 6 9 6 2 -2 -12 24 3 5 17 12 10 10 9 6 8 10 9 7 7 6 5 1 6 3 5 4 7 4 1 -1 -3 3 8 11 7 11 7 15
4 4 4 6 5 4 4 4 1 2 7 7 8 3 1 4 11 9 19 11 14 11 9 7 10 11 11 9 7 6 5 4 3 3 4 1 6 3 4 3 2 3 4 6 7 12 6 9 15
3 3 5 4 4 3 3 3 4 2 6 12 8 7 -4 3 5 7 13 9 13 9 6 9 11 10 9 7 9 6 4 2 5 5 5 4 5 5 3 2 5 9 4 -2 19 9 9 3 5
5 4 5 5 5 3 4 3 4 5 4 3 7 1 -2 -1 10 22 13 10 10 7 9 9 9 8 6 8 5 6 5 5 4 4 7 2 4 2 3 4 9 -0 4 11 19 3 4 7 5
2 7 4 5 6 3 5 1 4 7 11 3 3 0 -2 1 31 20 12 9 10 8 9 10 9 9 7 5 5 6 8 5 5 6 3 5 3 2 3 12 3 4 5 14 12 0 4 9 10
5 8 7 6 5 4 6 -5 6 7 3 4 7 -6 1 4 37 11 9 7 4 7 10 8 8 7 6 5 6 5 4 4 5 7 2 1 4 7 11 8 7 5 5 14 12 6 10 7 5
8 6 5 4 5 -2 10 4 11 10 6 2 5 4 1 34 18 12 7 4 8 10 9 8 8 6 4 5 5 6 6 8 6 1 4 6 6 4 4 5 6 1 11 12 8 6 9 10 8
3 2 3 3 3 -0 13 6 -1 11 -3 -2 4 13 6 21 24 9 9 8 9 9 9 8 5 4 5 5 5 4 4 2 2 4 5 3 7 6 1 4 5 3 5 8 3 6 11 8 9
8 9 1 11 4 9 14 6 2 5 0 4 -2 11 9 -3 12 2 9 9 13 12 9 7 5 5 5 5 7 5 4 3 3 4 2 1 3 1 8 7 7 12 4 12 10 9 8 2 13
5 -8 14 11 8 9 6 3 -2 2 0 5 14 -1 27 9 10 6 2 6 11 11 9 6 5 6 6 5 3 6 6 4 4 4 2 8 3 3 5 7 11 8 6 16 18 7 10 5 6
0 7 8 6 6 5 4 2 -3 -6 14 9 -8 0 40 5 15 4 8 5 12 9 7 6 5 6 5 3 4 6 9 5 5 4 6 6 2 7 3 5 2 12 11 12 14 13 10 4 6
2 -0 -1 3 1 2 4 -0 -1 0 6 -5 4 26 27 3 11 3 5 9 12 10 9 3 4 4 5 5 4 5 8 5 9 8 4 8 7 3 1 -2 15 19 17 6 8 15 15 15 19
9 4 5 5 4 3 8 16 11 8 8 6 -4 12 14 10 9 4 16 9 10 10 4 4 4 6 4 2 7 7 6 7 8 12 9 9 0 -2 5 12 24 15 5 8 6 4 3 12 17
Height
5924 5926 5926 5927 5930 5926 5926 5927 5927 5926 5930 5930 5931 5930 5928 5928 5927 5927 5924 5923 5922 5920 5918 5917 5915 5913 5911 5909 5906 5904 5902 5899 5896 5893 5890 5887 5884 5881 5879 5876 5874 5871 5869 5866 5863 5859 5857 5855 5854
5923 5924 5925 5925 5926 5925 5925 5926 5925 5925 5928 5929 5931 5930 5928 5928 5927 5926 5925 5924 5922 5919 5917 5916 5914 5912 5910 5908 5906 5903 5901 5898 5895 5892 5889 5885 5882 5878 5875 5874 5872 5869 5867 5864 5861 5858 5856 5853 5852
5921 5922 5923 5923 5923 5922 5924 5926 5926 5925 5923 5927 5929 5929 5928 5928 5927 5924 5922 5921 5920 5918 5916 5914 5913 5911 5908 5907 5905 5902 5899 5896 5894 5890 5887 5883 5879 5876 5873 5871 5869 5867 5864 5861 5859 5857 5854 5853 5850
5918 5920 5922 5921 5918 5921 5923 5924 5924 5923 5926 5924 5923 5927 5927 5926 5926 5923 5920 5918 5917 5917 5915 5913 5911 5910 5908 5906 5904 5900 5897 5894 5891 5887 5884 5880 5877 5873 5870 5868 5867 5864 5862 5859 5856 5853 5851 5849 5847
5916 5917 5917 5917 5917 5918 5919 5920 5921 5920 5922 5925 5922 5922 5922 5922 5924 5921 5919 5917 5916 5914 5913 5911 5909 5908 5906 5904 5901 5897 5895 5891 5888 5884 5881 5878 5874 5870 5867 5865 5863 5861 5859 5856 5853 5850 5849 5846 5842
5913 5914 5915 5914 5912 5916 5916 5917 5917 5916 5917 5920 5921 5920 5919 5919 5921 5918 5918 5915 5913 5912 5910 5909 5907 5906 5903 5901 5898 5895 5892 5888 5885 5881 5877 5874 5870 5867 5864 5861 5859 5857 5854 5851 5849 5846 5844 5844 5840
5909 5911 5911 5911 5909 5912 5914 5914 5913 5913 5913 5915 5917 5918 5917 5916 5916 5917 5916 5914 5911 5909 5908 5906 5905 5903 5900 5897 5895 5892 5888 5884 5881 5878 5874 5870 5868 5865 5861 5859 5856 5854 5850 5847 5844 5840 5837 5834 5834
5905 5907 5907 5906 5908 5908 5912 5912 5912 5912 5910 5911 5912 5914 5916 5913 5912 5912 5913 5912 5910 5907 5905 5902 5901 5900 5896 5893 5892 5888 5885 5881 5877 5874 5870 5867 5865 5862 5858 5855 5853 5849 5846 5843 5839 5836 5832 5827 5826
5901 5903 5903 5902 5904 5904 5908 5908 5909 5910 5909 5907 5908 5910 5911 5909 5907 5907 5908 5907 5906 5905 5903 5900 5897 5896 5892 5890 5888 5885 5882 5878 5874 5870 5867 5865 5861 5858 5855 5852 5849 5845 5841 5839 5834 5831 5826 5823 5817
5896 5898 5897 5898 5900 5900 5903 5905 5905 5906 5905 5906 5906 5907 5906 5904 5904 5904 5903 5902 5902 5901 5899 5895 5892 5892 5888 5887 5884 5882 5879 5875 5870 5867 5865 5862 5858 5855 5852 5849 5846 5843 5841 5838 5832 5827 5822 5817 5814
5890 5894 5892 5893 5896 5896 5898 5901 5902 5903 5900 5901 5903 5904 5903 5902 5902 5901 5900 5900 5900 5898 5897 5893 5886 5887 5884 5882 5880 5877 5874 5871 5866 5864 5862 5859 5856 5853 5851 5848 5845 5841 5839 5834 5829 5823 5819 5813 5802
5883 5885 5888 5890 5892 5894 5894 5896 5897 5898 5896 5895 5896 5897 5896 5897 5897 5897 5895 5895 5896 5896 5894 5890 5886 5882 5879 5877 5874 5872 5869 5866 5863 5861 5858 5856 5853 5850 5848 5844 5842 5840 5836 5831 5828 5823 5818 5814 5808
5878 5880 5881 5886 5887 5887 5890 5891 5891 5891 5891 5890 5891 5891 5889 5890 5887 5887 5883 5883 5886 5884 5885 5883 5878 5876 5874 5871 5869 5866 5864 5862 5859 5858 5855 5852 5850 5848 5845 5842 5840 5837 5834 5831 5828 5823 5818 5812 5809
5872 5875 5876 5881 5883 5884 5882 5884 5884 5888 5884 5884 5888 5888 5886 5886 5886 5885 5880 5878 5878 5879 5877 5874 5870 5869 5869 5866 5863 5861 5859 5858 5856 5853 5851 5849 5848 5845 5841 5838 5836 5834 5831 5828 5823 5818 5814 5811 5809
5865 5868 5869 5874 5876 5876 5874 5878 5879 5879 5878 5880 5882 5882 5882 5882 5885 5884 5878 5870 5872 5873 5870 5866 5863 5862 5863 5860 5858 5857 5855 5853 5851 5849 5848 5846 5844 5841 5837 5834 5832 5830 5827 5823 5818 5816 5810 5807 5804
5855 5859 5862 5869 5868 5869 5866 5874 5871 5873 5873 5873 5876 5876 5875 5878 5880 5881 5877 5868 5867 5867 5865 5862 5858 5857 5857 5855 5853 5852 5851 5849 5847 5846 5845 5843 5840 5837 5833 5830 5828 5826 5824 5820 5814 5810 5808 5805 5802
5847 5852 5856 5861 5859 5859 5860 5866 5865 5867 5867 5868 5870 5867 5867 5871 5873 5872 5870 5861 5860 5861 5859 5856 5853 5852 5851 5850 5849 5848 5846 5845 5843 5842 5840 5838 5835 5832 5829 5826 5822 5819 5817 5815 5810 5805 5802 5802 5797
5846 5847 5849 5852 5853 5851 5853 5856 5857 5860 5862 5864 5864 5858 5858 5863 5863 5863 5861 5854 5853 5853 5853 5851 5848 5846 5845 5843 5842 5842 5841 5839 5838 5837 5835 5833 5831 5828 5824 5820 5816 5811 5808 5806 5804 5799 5795 5791 5791
5835 5836 5839 5843 5845 5844 5847 5849 5850 5851 5855 5857 5855 5852 5852 5854 5852 5854 5850 5846 5846 5845 5845 5844 5842 5841 5839 5838 5838 5837 5836 5834 5832 5831 5829 5827 5825 5822 5819 5814 5810 5806 5802 5799 5796 5794 5789 5785 5782
5825 5827 5830 5836 5838 5838 5838 5840 5843 5843 5847 5849 5846 5843 5843 5844 5846 5846 5842 5840 5839 5839 5838 5837 5836 5835 5834 5833 5832 5831 5830 5828 5827 5826 5824 5822 5819 5816 5812 5809 5804 5800 5795 5792 5788 5784 5780 5777 5775
5817 5819 5826 5830 5832 5828 5830 5828 5834 5836 5837 5841 5841 5840 5839 5839 5839 5836 5834 5833 5833 5833 5832 5831 5830 5829 5828 5826 5826 5825 5824 5823 5822 5820 5817 5815 5812 5809 5806 5802 5798 5794 5789 5785 5779 5773 5770 5767 5765
5809 5816 5819 5819 5821 5822 5821 5816 5823 5827 5830 5831 5831 5830 5828 5831 5833 5830 5828 5828 5827 5826 5825 5824 5823 5822 5821 5821 5820 5819 5818 5816 5814 5812 5810 5808 5805 5802 5799 5795 5791 5787 5782 5776 5772 5767 5764 5759 5756
5803 5806 5807 5807 5809 5813 5812 5811 5812 5819 5822 5824 5825 5825 5826 5825 5824 5822 5821 5820 5820 5819 5818 5817 5816 5815 5815 5814 5813 5812 5811 5809 5808 5806 5804 5801 5798 5795 5791 5787 5782 5777 5773 5768 5763 5760 5755 5751 5746
5792 5790 5793 5795 5799 5797 5805 5809 5807 5807 5817 5817 5817 5819 5820 5818 5816 5814 5813 5813 5812 5811 5810 5810 5809 5808 5808 5807 5806 5805 5803 5802 5800 5799 5796 5793 5790 5786 5782 5776 5771 5767 5763 5759 5755 5750 5746 5742 5736
5775 5778 5781 5784 5784 5788 5797 5796 5796 5802 5806 5808 5810 5811 5811 5810 5807 5805 5805 5804 5804 5803 5802 5802 5801 5801 5800 5800 5799 5797 5795 5794 5793 5791 5788 5784 5781 5777 5772 5767 5762 5757 5753 5749 5745 5741 5736 5732 5728
5765 5770 5775 5772 5778 5787 5786 5774 5781 5795 5794 5795 5799 5800 5800 5802 5799 5798 5796 5796 5796 5796 5795 5794 5794 5793 5793 5793 5792 5790 5788 5785 5784 5781 5778 5775 5771 5766 5761 5756 5752 5748 5743 5739 5734 5729 5725 5722 5718
5756 5756 5772 5767 5770 5769 5768 5769 5774 5779 5784 5789 5789 5788 5790 5792 5790 5789 5787 5788 5787 5788 5787 5787 5786 5786 5786 5785 5784 5782 5779 5776 5775 5772 5768 5763 5759 5755 5750 5744 5740 5735 5730 5725 5721 5717 5713 5708 5704
5743 5753 5753 5753 5753 5755 5757 5759 5765 5770 5774 5776 5777 5779 5780 5780 5780 5780 5779 5779 5778 5779 5779 5779 5778 5777 5777 5777 5775 5773 5770 5767 5764 5760 5756 5753 5748 5743 5738 5733 5728 5723 5717 5712 5708 5704 5701 5697 5691
5729 5733 5739 5746 5744 5745 5747 5749 5756 5757 5762 5766 5769 5767 5768 5769 5770 5771 5770 5769 5768 5770 5771 5770 5769 5769 5769 5767 5765 5762 5758 5756 5753 5748 5744 5742 5737 5732 5727 5722 5717 5710 5705 5700 5695 5690 5686 5683 5678
5718 5726 5733 5728 5730 5735 5738 5732 5743 5744 5748 5754 5756 5760 5759 5757 5758 5760 5760 5760 5760 5761 5762 5762 5760 5760 5758 5756 5753 5750 5746 5743 5739 5735 5732 5728 5723 5719 5713 5706 5700 5695 5690 5686 5682 5676 5671 5667 5662